User: anonymous
Location: Unspecified
(0.0000°N, 0.0000°E)
Time: 09:42:37
(UTC+00:00)
Language:

PW SAT - Orbit

View from above orbital plane
View from above orbital plane
View from above satellite
View from above satellite

Ground track
Ground track

The orbit data is extracted from the following two-line orbital elements,

1 38083U 12006G   14203.13316849  .00066626  48286-5  51278-3 0  4503
2 38083 069.4433 237.8681 0268036 292.2744 065.0207 15.37278190129299
Epoch (UTC): 22 July 2014 03:11:45
Eccentricity: 0.0268036
inclination: 69.4433°
perigee height: 271 km
apogee height: 637 km
right ascension of ascending node: 237.8681°
argument of perigee: 292.2744°
revolutions per day: 15.37278190
mean anomaly at epoch: 65.0207°
orbit number at epoch: 12929

The dashed part of the orbit path shows where the satellite is in the earth's shadow,  

DLR